• In Denmark
  • List of Countries
  • For 7 days
  • Water Temperature
  • Satellite Maps
  • Weather Map
  • Weather Widgets
  • user-avatar
    Login

    Hourly Weather Hadera

    Today, 20 November, Monday

    Time Temperature Precipitation Wind Pressure Humidity
    00:00 +15°C° 0.9 mm 4 mps 717 mmHg 82%
    01:00 +14°C° 0.9 mm 3 mps 717 mmHg 83%
    02:00 +14°C° 0 mm 3 mps 717 mmHg 87%
    03:00 +14°C° 0.6 mm 3 mps 717 mmHg 87%
    04:00 +15°C° 0.6 mm 2 mps 717 mmHg 87%
    05:00 +14°C° 0.6 mm 2 mps 717 mmHg 88%
    06:00 +15°C° 0.3 mm 2 mps 717 mmHg 85%
    07:00 +15°C° 0.3 mm 2 mps 717 mmHg 82%
    08:00 +16°C° 0.3 mm 2 mps 717 mmHg 79%
    09:00 +16°C° 0.3 mm 2 mps 717 mmHg 75%
    10:00 +17°C° 0.3 mm 3 mps 716 mmHg 71%
    11:00 +18°C° 0.3 mm 3 mps 716 mmHg 67%
    12:00 +18°C° 0.6 mm 4 mps 716 mmHg 67%
    13:00 +18°C° 0.6 mm 4 mps 716 mmHg 67%
    14:00 +17°C° 0.6 mm 5 mps 716 mmHg 67%
    15:00 +16°C° 1.1 mm 5 mps 715 mmHg 72%
    16:00 +15°C° 1.1 mm 5 mps 715 mmHg 76%
    17:00 +15°C° 1.1 mm 5 mps 715 mmHg 81%
    18:00 +15°C° 0.7 mm 5 mps 715 mmHg 82%
    19:00 +14°C° 0.7 mm 6 mps 714 mmHg 83%
    20:00 +14°C° 0.7 mm 6 mps 714 mmHg 84%
    21:00 +14°C° 0.6 mm 7 mps 714 mmHg 83%
    22:00 +14°C° 0.6 mm 7 mps 714 mmHg 82%
    23:00 +13°C° 0.6 mm 8 mps 713 mmHg 81%

    Tomorrow, 21 November, Tuesday

    Time Temperature Precipitation Wind Pressure Humidity
    00:00 +13°C° 0.9 mm 9 mps 713 mmHg 82%
    01:00 +13°C° 0.9 mm 10 mps 712 mmHg 83%
    02:00 +13°C° 0.9 mm 11 mps 712 mmHg 84%
    03:00 +12°C° 0.4 mm 12 mps 712 mmHg 79%
    04:00 +12°C° 0.4 mm 13 mps 712 mmHg 74%
    05:00 +12°C° 0.4 mm 13 mps 712 mmHg 69%
    06:00 +12°C° 0.1 mm 13 mps 712 mmHg 68%
    07:00 +12°C° 0.1 mm 13 mps 712 mmHg 67%
    08:00 +12°C° 0.1 mm 13 mps 712 mmHg 66%
    09:00 +12°C° 0 mm 12 mps 713 mmHg 62%
    10:00 +13°C° 0 mm 11 mps 713 mmHg 59%
    11:00 +14°C° 0 mm 10 mps 714 mmHg 56%
    12:00 +13°C° 0 mm 10 mps 714 mmHg 56%
    13:00 +13°C° 0 mm 9 mps 714 mmHg 56%
    14:00 +13°C° 0 mm 9 mps 714 mmHg 56%
    15:00 +13°C° 0 mm 8 mps 714 mmHg 57%
    16:00 +12°C° 0 mm 8 mps 714 mmHg 58%
    17:00 +12°C° 0 mm 7 mps 715 mmHg 59%
    18:00 +11°C° 0 mm 7 mps 715 mmHg 58%
    19:00 +11°C° 0 mm 7 mps 715 mmHg 57%
    20:00 +11°C° 0 mm 7 mps 716 mmHg 56%
    21:00 +11°C° 0 mm 6 mps 716 mmHg 56%
    22:00 +10°C° 0 mm 6 mps 716 mmHg 56%
    23:00 +10°C° 0 mm 5 mps 717 mmHg 55%

    Day after tomorrow, 22 November, Wednesday

    Time Temperature Precipitation Wind Pressure Humidity
    00:00 +10°C° 0 mm 5 mps 717 mmHg 56%
    01:00 +10°C° 0 mm 5 mps 717 mmHg 56%
    02:00 +9°C° 0 mm 5 mps 717 mmHg 57%
    03:00 +9°C° 0 mm 5 mps 717 mmHg 58%
    04:00 +10°C° 0 mm 4 mps 717 mmHg 58%
    05:00 +8°C° 0 mm 4 mps 717 mmHg 59%
    06:00 +10°C° 0 mm 4 mps 717 mmHg 56%
    07:00 +11°C° 0 mm 4 mps 718 mmHg 54%
    08:00 +11°C° 0 mm 3 mps 718 mmHg 51%
    09:00 +12°C° 0 mm 3 mps 718 mmHg 47%
    10:00 +13°C° 0 mm 3 mps 719 mmHg 43%
    11:00 +14°C° 0 mm 3 mps 719 mmHg 39%
    12:00 +14°C° 0 mm 3 mps 719 mmHg 39%
    13:00 +14°C° 0 mm 3 mps 719 mmHg 38%
    14:00 +14°C° 0 mm 3 mps 719 mmHg 38%
    15:00 +13°C° 0 mm 3 mps 719 mmHg 41%
    16:00 +12°C° 0 mm 3 mps 719 mmHg 44%
    17:00 +11°C° 0 mm 3 mps 719 mmHg 48%
    18:00 +11°C° 0 mm 3 mps 719 mmHg 49%
    19:00 +12°C° 0 mm 2 mps 720 mmHg 51%
    20:00 +10°C° 0 mm 2 mps 720 mmHg 52%
    21:00 +10°C° 0 mm 2 mps 720 mmHg 54%
    22:00 +10°C° 0 mm 2 mps 720 mmHg 55%
    23:00 +10°C° 0 mm 2 mps 720 mmHg 56%

    23 November, Thursday

    Time Temperature Precipitation Wind Pressure Humidity
    00:00 +10°C° 0 mm 1 mps 720 mmHg 57%
    01:00 +10°C° 0 mm 1 mps 720 mmHg 58%
    02:00 +10°C° 0 mm 1 mps 720 mmHg 59%
    03:00 +10°C° 0 mm 1 mps 720 mmHg 59%
    04:00 +10°C° 0 mm 1 mps 719 mmHg 59%
    05:00 +9°C° 0 mm 1 mps 719 mmHg 59%
    06:00 +11°C° 0 mm 1 mps 720 mmHg 56%
    07:00 +12°C° 0 mm 1 mps 720 mmHg 52%
    08:00 +13°C° 0 mm 1 mps 720 mmHg 49%
    09:00 +14°C° 0 mm 2 mps 721 mmHg 45%
    10:00 +15°C° 0 mm 2 mps 721 mmHg 41%
    11:00 +16°C° 0 mm 2 mps 721 mmHg 37%
    12:00 +16°C° 0 mm 3 mps 721 mmHg 38%
    13:00 +16°C° 0 mm 3 mps 720 mmHg 40%
    14:00 +15°C° 0 mm 4 mps 720 mmHg 41%
    15:00 +14°C° 0 mm 4 mps 720 mmHg 45%
    16:00 +13°C° 0 mm 3 mps 720 mmHg 50%
    17:00 +12°C° 0 mm 3 mps 720 mmHg 54%
    18:00 +12°C° 0 mm 3 mps 720 mmHg 56%
    19:00 +12°C° 0 mm 3 mps 720 mmHg 57%
    20:00 +13°C° 0 mm 2 mps 720 mmHg 59%
    21:00 +12°C° 0 mm 2 mps 720 mmHg 60%
    22:00 +12°C° 0 mm 2 mps 720 mmHg 61%
    23:00 +12°C° 0 mm 2 mps 720 mmHg 62%

    24 November, Friday

    Time Temperature Precipitation Wind Pressure Humidity
    00:00 +12°C° 0 mm 2 mps 720 mmHg 63%
    01:00 +12°C° 0 mm 2 mps 720 mmHg 63%
    02:00 +12°C° 0 mm 2 mps 720 mmHg 64%
    03:00 +12°C° 0 mm 2 mps 720 mmHg 65%
    04:00 +12°C° 0 mm 2 mps 720 mmHg 66%
    05:00 +10°C° 0 mm 2 mps 720 mmHg 67%
    06:00 +12°C° 0 mm 2 mps 720 mmHg 65%
    07:00 +13°C° 0 mm 2 mps 721 mmHg 64%
    08:00 +14°C° 0 mm 1 mps 721 mmHg 62%
    09:00 +15°C° 0 mm 1 mps 721 mmHg 58%
    10:00 +16°C° 0 mm 1 mps 721 mmHg 54%
    11:00 +18°C° 0 mm 1 mps 721 mmHg 50%
    12:00 +17°C° 0 mm 2 mps 721 mmHg 50%
    13:00 +17°C° 0 mm 2 mps 721 mmHg 49%
    14:00 +18°C° 0 mm 2 mps 721 mmHg 49%
    15:00 +17°C° 0 mm 2 mps 721 mmHg 53%
    16:00 +16°C° 0 mm 2 mps 721 mmHg 56%
    17:00 +15°C° 0 mm 2 mps 721 mmHg 60%
    18:00 +14°C° 0 mm 2 mps 721 mmHg 61%
    19:00 +14°C° 0 mm 2 mps 721 mmHg 63%
    20:00 +14°C° 0 mm 1 mps 722 mmHg 65%
    21:00 +13°C° 0 mm 1 mps 722 mmHg 66%
    22:00 +13°C° 0 mm 1 mps 722 mmHg 68%
    23:00 +13°C° 0 mm 1 mps 722 mmHg 69%

    25 November, Saturday

    Time Temperature Precipitation Wind Pressure Humidity
    00:00 +12°C° 0 mm 1 mps 722 mmHg 70%
    01:00 +12°C° 0 mm 1 mps 722 mmHg 71%
    02:00 +12°C° 0 mm 1 mps 722 mmHg 72%
    03:00 +12°C° 0 mm 1 mps 722 mmHg 73%
    04:00 +12°C° 0 mm 1 mps 722 mmHg 74%
    05:00 +11°C° 0 mm 1 mps 722 mmHg 75%
    06:00 +12°C° 0 mm 1 mps 722 mmHg 72%
    07:00 +13°C° 0 mm 2 mps 722 mmHg 68%
    08:00 +14°C° 0 mm 2 mps 722 mmHg 65%
    09:00 +15°C° 0 mm 2 mps 722 mmHg 60%
    10:00 +16°C° 0 mm 2 mps 722 mmHg 54%
    11:00 +17°C° 0 mm 2 mps 722 mmHg 49%
    12:00 +17°C° 0 mm 2 mps 722 mmHg 49%
    13:00 +17°C° 0 mm 2 mps 722 mmHg 49%
    14:00 +17°C° 0 mm 2 mps 722 mmHg 49%
    15:00 +16°C° 0 mm 2 mps 722 mmHg 53%
    16:00 +16°C° 0 mm 2 mps 722 mmHg 57%
    17:00 +15°C° 0 mm 2 mps 722 mmHg 62%
    18:00 +14°C° 0 mm 2 mps 722 mmHg 64%
    19:00 +14°C° 0 mm 2 mps 722 mmHg 66%
    20:00 +13°C° 0 mm 2 mps 722 mmHg 68%
    21:00 +13°C° 0 mm 2 mps 722 mmHg 69%
    22:00 +13°C° 0 mm 2 mps 722 mmHg 71%
    23:00 +12°C° 0 mm 3 mps 722 mmHg 72%
    Show more